Weather History for Macomb, IL

Change the Weather History Date:

Thursday, November 1, 2012

  Actual Average (KBRL) Record (KBRL)
Temperature  
Mean Temperature 48 °F 50 °F  
Max Temperature 65 °F 59 °F 81 °F (1950)
Min Temperature 32 °F 40 °F 21 °F (1913)
Degree Days  
Heating Degree Days 16 16  
Month to date heating degree days 16  
Since 1 July heating degree days 410  
Cooling Degree Days 0 0  
Month to date cooling degree days 0  
Year to date cooling degree days 1206  
Moisture  
Dew Point 33 °F    
Average Humidity 61    
Maximum Humidity 81    
Minimum Humidity 36    
Precipitation  
Precipitation 0.00 in 0.09 in 0.98 in (2004)
Month to date precipitation 0.09  
Year to date precipitation 33.98  
Sea Level Pressure  
Sea Level Pressure 29.94 in    
Wind  
Wind Speed 9 mph (WNW)    
Max Wind Speed 16 mph    
Max Gust Speed 20 mph    
Visibility 10 miles    
Events      
T = Trace of Precipitation, MM = Missing Value Source: NWS Daily Summary

Daily Weather History Graph

Daily Weather History Graph

Search for Another Location

Airport:

Trip Planner

Search our weather history database for the weather conditions in past years. The results will help you decide how hot, cold, wet, or windy it might be!

Date:

Astronomy

Nov. 01, 2012 Rise Set
Actual Time 7:33 AM CDT 5:58 PM CDT
Civil Twilight 7:04 AM CDT 6:26 PM CDT
Nautical Twilight 6:32 AM CDT 6:59 PM CDT
Astronomical Twilight 6:00 AM CDT 7:30 PM CDT
Moon 7:55 PM CDT (11/1) 10:06 AM CDT (11/1)
Length of Visible Light 11h 22m
Length of Day
10h 25m
Waning Gibbous, 93% of the Moon is Illuminated
Nov 1
Waning Gibbous
Nov 6
Last Quarter
Nov 13
New
Nov 20
First Quarter
Nov 28
Full

Hourly Weather History & Observations

Time (CDT) Temp. Windchill Dew Point Humidity Pressure Visibility Wind Dir Wind Speed Gust Speed Precip Events Conditions
12:15 AM 33.8 °F 25.8 °F 25.2 °F 71% 29.97 in 10.0 mi West 10.4 mph - N/A   Clear
12:35 AM 34.3 °F 25.9 °F 25.5 °F 70% 29.97 in 10.0 mi WNW 11.5 mph - N/A   Clear
12:55 AM 34.3 °F 26.5 °F 26.1 °F 72% 29.97 in 10.0 mi WNW 10.4 mph - N/A   Clear
1:15 AM 34.9 °F 27.1 °F 26.2 °F 71% 29.98 in 10.0 mi WNW 10.4 mph - N/A   Clear
1:35 AM 34.5 °F 26.7 °F 26.2 °F 72% 29.98 in 10.0 mi WNW 10.4 mph - N/A   Clear
1:55 AM 34.3 °F 27.7 °F 25.7 °F 71% 29.98 in 10.0 mi NW 8.1 mph - N/A   Clear
2:15 AM 33.8 °F 25.8 °F 26.4 °F 74% 29.98 in 10.0 mi WNW 10.4 mph - N/A   Clear
2:35 AM 32.7 °F 24.5 °F 26.4 °F 78% 29.98 in 10.0 mi WNW 10.4 mph - N/A   Clear
2:55 AM 33.1 °F 24.9 °F 26.4 °F 77% 29.98 in 10.0 mi WNW 10.4 mph - N/A   Clear
3:15 AM 33.1 °F 24.9 °F 26.4 °F 77% 29.98 in 10.0 mi WNW 10.4 mph - N/A   Scattered Clouds
3:35 AM 32.7 °F 26.4 °F 26.6 °F 78% 29.98 in 10.0 mi WNW 6.9 mph - N/A   Scattered Clouds
3:55 AM 32.9 °F 25.3 °F 27.0 °F 79% 29.97 in 10.0 mi West 9.2 mph - N/A   Scattered Clouds
4:15 AM 33.6 °F 26.8 °F 27.0 °F 77% 29.97 in 10.0 mi West 8.1 mph - N/A   Scattered Clouds
4:35 AM 33.8 °F 27.0 °F 27.0 °F 76% 29.97 in 10.0 mi WNW 8.1 mph - N/A   Scattered Clouds
4:55 AM 32.5 °F 26.2 °F 27.0 °F 80% 29.98 in 10.0 mi WNW 6.9 mph - N/A   Scattered Clouds
5:15 AM 32.9 °F 25.9 °F 27.5 °F 81% 29.97 in 10.0 mi West 8.1 mph - N/A   Mostly Cloudy
5:35 AM 34.9 °F 29.9 °F 28.6 °F 78% 29.97 in 10.0 mi WSW 5.8 mph - N/A   Overcast
5:55 AM 36.5 °F 31.0 °F 29.5 °F 76% 29.98 in 10.0 mi West 6.9 mph - N/A   Overcast
6:15 AM 36.5 °F 32.7 °F 29.5 °F 76% 29.98 in 10.0 mi West 4.6 mph - N/A   Overcast
6:35 AM 36.5 °F 31.8 °F 30.2 °F 78% 29.98 in 10.0 mi West 5.8 mph - N/A   Overcast
6:55 AM 36.7 °F 31.2 °F 29.7 °F 76% 29.98 in 10.0 mi West 6.9 mph - N/A   Mostly Cloudy
7:15 AM 34.7 °F 30.6 °F 29.1 °F 80% 29.98 in 10.0 mi West 4.6 mph - N/A   Mostly Cloudy
7:35 AM 35.2 °F 29.5 °F 29.3 °F 79% 29.98 in 10.0 mi West 6.9 mph - N/A   Mostly Cloudy
7:55 AM 35.6 °F 32.8 °F 29.7 °F 79% 29.98 in 10.0 mi West 3.5 mph - N/A   Overcast
8:15 AM 36.9 °F 33.1 °F 30.6 °F 78% 29.98 in 10.0 mi WSW 4.6 mph - N/A   Overcast
8:35 AM 39.0 °F 36.8 °F 31.8 °F 75% 29.99 in 10.0 mi West 3.5 mph - N/A   Overcast
8:55 AM 40.8 °F 38.8 °F 32.0 °F 71% 29.99 in 10.0 mi WSW 3.5 mph - N/A   Overcast
9:15 AM 42.1 °F 39.2 °F 31.5 °F 66% 29.99 in 10.0 mi WSW 4.6 mph - N/A   Overcast
9:35 AM 43.7 °F 41.1 °F 30.9 °F 61% 29.99 in 10.0 mi SW 4.6 mph - N/A   Overcast
9:55 AM 45.7 °F 43.4 °F 30.7 °F 56% 29.98 in 10.0 mi WSW 4.6 mph - N/A   Overcast
10:15 AM 47.7 °F - 31.1 °F 53% 29.98 in 10.0 mi WSW 5.8 mph - N/A   Overcast
10:35 AM 50.7 °F - 30.6 °F 46% 29.98 in 10.0 mi WSW 4.6 mph - N/A   Mostly Cloudy
10:55 AM 51.6 °F - 30.7 °F 45% 29.98 in 10.0 mi WSW 5.8 mph - N/A   Mostly Cloudy
11:15 AM 53.8 °F - 31.8 °F 43% 29.97 in 10.0 mi WSW 6.9 mph - N/A   Overcast
11:35 AM 54.5 °F - 31.5 °F 42% 29.97 in 10.0 mi SW 5.8 mph - N/A   Mostly Cloudy
11:55 AM 55.6 °F - 33.1 °F 43% 29.97 in 10.0 mi West 9.2 mph - N/A   Overcast
12:15 PM 57.0 °F - 34.3 °F 42% 29.96 in 10.0 mi WSW 9.2 mph - N/A   Mostly Cloudy
12:35 PM 59.0 °F - 35.1 °F 41% 29.95 in 10.0 mi WSW 10.4 mph - N/A   Mostly Cloudy
12:55 PM 61.3 °F - 35.1 °F 37% 29.93 in 10.0 mi WSW 10.4 mph 16.1 mph N/A   Overcast
1:15 PM 61.9 °F - 36.0 °F 38% 29.92 in 10.0 mi West 12.7 mph - N/A   Overcast
1:35 PM 61.7 °F - 35.6 °F 38% 29.90 in 10.0 mi WSW 13.8 mph - N/A   Mostly Cloudy
1:55 PM 62.6 °F - 35.6 °F 37% 29.90 in 10.0 mi West 12.7 mph 17.3 mph N/A   Scattered Clouds
2:15 PM 63.7 °F - 36.1 °F 36% 29.89 in 10.0 mi West 15.0 mph 19.6 mph N/A   Scattered Clouds
2:35 PM 64.0 °F - 36.7 °F 36% 29.88 in 10.0 mi WSW 13.8 mph - N/A   Clear
2:55 PM 64.4 °F - 37.2 °F 37% 29.87 in 10.0 mi West 16.1 mph - N/A   Clear
3:15 PM 65.5 °F - 38.3 °F 37% 29.87 in 10.0 mi West 12.7 mph 18.4 mph N/A   Scattered Clouds
3:35 PM 64.6 °F - 37.9 °F 37% 29.87 in 10.0 mi West 16.1 mph - N/A   Scattered Clouds
3:55 PM 64.6 °F - 37.4 °F 37% 29.86 in 10.0 mi West 15.0 mph - N/A   Clear
4:15 PM 64.8 °F - 38.5 °F 38% 29.86 in 10.0 mi West 12.7 mph 19.6 mph N/A   Clear
4:35 PM 64.4 °F - 39.0 °F 39% 29.86 in 10.0 mi West 10.4 mph - N/A   Clear
4:55 PM 63.9 °F - 39.2 °F 40% 29.86 in 10.0 mi West 15.0 mph - N/A   Clear
5:15 PM 63.1 °F - 39.7 °F 42% 29.86 in 10.0 mi WNW 11.5 mph - N/A   Scattered Clouds
5:35 PM 61.3 °F - 41.4 °F 48% 29.87 in 10.0 mi NW 11.5 mph - N/A   Scattered Clouds
5:55 PM 59.5 °F - 40.6 °F 50% 29.87 in 10.0 mi NW 9.2 mph - N/A   Scattered Clouds
6:15 PM 55.8 °F - 40.8 °F 57% 29.88 in 10.0 mi NW 9.2 mph - N/A   Clear
6:35 PM 54.5 °F - 40.1 °F 58% 29.88 in 10.0 mi NNW 10.4 mph - N/A   Clear
6:55 PM 53.1 °F - 39.6 °F 60% 29.88 in 10.0 mi NW 11.5 mph - N/A   Clear
7:15 PM 54.3 °F - 38.7 °F 55% 29.89 in 10.0 mi NW 10.4 mph - N/A   Clear
7:35 PM 49.5 °F - 37.9 °F 65% 29.89 in 10.0 mi NW 5.8 mph - N/A   Clear
7:55 PM 46.6 °F - 37.4 °F 70% 29.90 in 10.0 mi NW 9.2 mph - N/A   Clear
8:15 PM 50.0 °F - 37.8 °F 63% 29.92 in 10.0 mi NW 10.4 mph - N/A   Clear
8:35 PM 49.1 °F - 37.6 °F 64% 29.92 in 10.0 mi NNW 11.5 mph - N/A   Clear
8:55 PM 46.9 °F - 37.0 °F 68% 29.93 in 10.0 mi NNW 10.4 mph - N/A   Clear
9:15 PM 45.9 °F 40.4 °F 36.1 °F 69% 29.93 in 10.0 mi NNW 11.5 mph - N/A   Clear
9:35 PM 45.0 °F 40.1 °F 35.6 °F 70% 29.94 in 10.0 mi NNW 9.2 mph - N/A   Clear
9:55 PM 42.6 °F 38.4 °F 34.7 °F 74% 29.95 in 10.0 mi North 6.9 mph - N/A   Clear
10:15 PM 43.2 °F 37.9 °F 34.0 °F 70% 29.95 in 10.0 mi NNW 9.2 mph - N/A   Clear
10:35 PM 43.0 °F 38.2 °F 33.8 °F 70% 29.95 in 10.0 mi NNW 8.1 mph - N/A   Clear
10:55 PM 41.2 °F 36.0 °F 33.3 °F 73% 29.96 in 10.0 mi NNW 8.1 mph - N/A   Clear
11:15 PM 40.3 °F 34.9 °F 32.9 °F 75% 29.96 in 10.0 mi NNW 8.1 mph - N/A   Clear
11:35 PM 39.9 °F 34.5 °F 32.5 °F 75% 29.96 in 10.0 mi North 8.1 mph - N/A   Clear
11:55 PM 39.6 °F 34.0 °F 32.5 °F 76% 29.96 in 10.0 mi North 8.1 mph - N/A   Clear